Location: Pea Ridge
(34.0640°N, 87.8670°W)
Time: 06:11:23
(UTC+00:00)

A-11 Canister half - Pass Details

Date: 21 December 2025
Orbit: 1526 x 1682 km, 47.3° (Epoch: 20 January)

Event Time Altitude Azimuth Distance (km) Brightness Sun altitude
Rises 12:24:52 0° 210° (SSW) 4,792 11.5 -6.1°
Reaches altitude 10° 12:28:03 10° 205° (SSW) 3,830 11.1 -5.5°
Maximum altitude 12:37:24 51° 133° (SE) 1,997 10.2 -3.8°
Drops below altitude 10° 12:47:00 10° 61° (ENE) 3,936 11.7 -2.0°
Sets 12:50:18 0° 57° (ENE) 4,933 12.1 -1.4°
